Location: El Banqueo
(10.5289°N, 67.0444°W)
Time: 07:28:30
(UTC+00:00)

Cosmos 1850 Rocket - Pass Details

Date: 18 April 2024
Orbit: 752 x 783 km, 74.0° (Epoch: 25 May)

Event Time Altitude Azimuth Distance (km) Brightness Sun altitude
Rises 23:40:21 0° 342° (NNW) 3,228 7.7 -15.4°
Reaches altitude 10° 23:42:44 10° 339° (NNW) 2,297 7.0 -16.0°
Maximum altitude 23:47:53 63° 258° (WSW) 843 4.4 -17.2°
Drops below altitude 10° 23:53:00 10° 177° (S) 2,279 6.3 -18.4°
Sets 23:55:22 0° 174° (S) 3,201 7.0 -19.0°
